Погода в Лосицах

Россия / Псковская область     58°32′43″N   28°43′32″E
темп.,
°C
ветер,
м/с
пор.,
м/с
влажн.,
%
обл.,
%
осадки,
мм/ч
давл.,
гПа
погр.,
м
29 июля, чт
чт2900:00+17зюз229489 0.0 100727
03:00+16юз2495100 0.0 100762
06:00+16зюз2797100 0.0 1006169
09:00+20зюз368294 0.0 1005432
12:00+26зюз474289 0.0 10041736
15:00+25юз4752100 0.0 10031612
18:00+23зюз2663100 0.0 1002447
21:00+21з397042 0.1 1002332
30 июля, пт
пт3000:00+16зюз310865 0.0 1003258
03:00+15юз310932 0.0 1003279
06:00+15юз411845 0.0 1003496
09:00+19зюз510583 0.0 10031256
12:00+22юз61043100 0.0 10022403
15:00+21юз4950100 0.0 10011700
18:00+22юз6104598 0.0 10002290
21:00+15ююз3108122 0.4 999244
31 июля, сб
сб3100:00+18ююз61259100 0.0 9971486
03:00+14ююз61295100 2.4 996946
06:00+14юз5129729 4.4 997613
09:00+17зюз5118614 4.6 998876
12:00+21з586474 0.4 9991438
15:00+24зсз58425 0.6 10001830
18:00+24з38435 0.0 10011937
21:00+18зюз310825 0.4 1003310
1 августа, вс
вс100:00+15юз269697 0.4 1004131
03:00+15ююз2697100 0.4 1004123
06:00+15ю3895100 0.0 1003207
09:00+15ююз3998100 4.6 1002417
12:00+18ююз598997 5.9 1002762
15:00+23юз610613 6.4 10011650
18:00+23зюз6125694 0.3 10021792
21:00+19зюз41169100 0.3 1003827
2 августа, пн
пн200:00+15юз31087100 0.0 1004374
03:00+14юз4987100 0.0 1004381
06:00+14юз3108722 0.0 1005362
09:00+18зюз3566100 0.0 1004760
12:00+21зюз2353100 0.1 10041486
15:00+19сз2371100 0.6 1004316
18:00+18зсз2389100 2.1 1004175
21:00+15сз1496100 4.8 1004133